Location: D�pe
(52.6057°N, 8.1808°E)
Time: 14:03:57
(UTC+00:00)

Cosmos 1302 Rocket - Pass Details

Date: 29 October 2020
Orbit: 756 x 777 km, 74.0° (Epoch: 28 November)

Event Time Altitude Azimuth Distance (km) Brightness Sun altitude
Rises 16:56:38 0° 186° (S) 3,229 7.5 -8.8°
Reaches altitude 10° 16:59:03 10° 181° (S) 2,310 6.6 -9.1°
Maximum altitude 17:04:06 50° 107° (ESE) 984 4.2 -9.9°
Drops below altitude 10° 17:09:13 10° 34° (NNE) 2,336 6.1 -10.6°
Sets 17:11:40 0° 29° (NNE) 3,270 6.9 -11.0°
